Time,TemperatureF,DewpointF,PressureIn,WindDirection,WindDirectionDegrees,WindSpeedMPH,WindSpeedGustMPH,Humidity,HourlyPrecipIn,Conditions,Clouds,dailyrainin,SoftwareType,DateUTC
2013-02-27 00:00:00,32.4,11.9,30.21,SSE,158,0.0,0.0,42,0.00,,SCT,0.00,VWS V14.01,2013-02-27 08:00:00,
2013-02-27 00:03:00,34.2,12.4,30.21,WSW,257,5.4,8.1,40,0.00,,SCT,0.00,VWS V14.01,2013-02-27 08:03:00,
2013-02-27 00:08:00,34.2,12.4,30.21,SSW,193,3.6,8.7,40,0.00,,SCT,0.00,VWS V14.01,2013-02-27 08:08:00,
2013-02-27 00:14:00,33.8,12.1,30.21,SSE,155,6.3,8.7,40,0.00,,SCT,0.00,VWS V14.01,2013-02-27 08:14:00,
2013-02-27 00:15:00,32.9,12.3,30.21,SE,133,3.1,5.4,42,0.00,,SCT,0.00,VWS V14.01,2013-02-27 08:15:00,
2013-02-27 00:19:00,33.6,12.4,30.21,SSW,200,3.1,8.3,41,0.00,,SCT,0.00,VWS V14.01,2013-02-27 08:19:00,
2013-02-27 00:24:00,33.4,12.3,30.21,West,262,5.4,8.3,41,0.00,,SCT,0.00,VWS V14.01,2013-02-27 08:24:00,
2013-02-27 00:29:00,33.1,12.0,30.21,West,263,0.0,8.3,41,0.00,,SCT,0.00,VWS V14.01,2013-02-27 08:29:00,
2013-02-27 00:30:00,32.5,12.5,30.21,South,185,3.6,7.6,43,0.00,,SCT,0.00,VWS V14.01,2013-02-27 08:30:00,
2013-02-27 00:34:00,32.9,11.8,30.21,WSW,245,2.7,6.3,41,0.00,,SCT,0.00,VWS V14.01,2013-02-27 08:34:00,
2013-02-27 00:39:00,32.7,12.2,30.21,WNW,283,0.0,6.3,42,0.00,,SCT,0.00,VWS V14.01,2013-02-27 08:39:00,
2013-02-27 00:44:00,32.7,12.2,30.21,SW,223,0.0,6.3,42,0.00,,SCT,0.00,VWS V14.01,2013-02-27 08:44:00,
2013-02-27 00:45:00,32.2,13.2,30.21,SSE,155,3.6,6.3,45,0.00,,SCT,0.00,VWS V14.01,2013-02-27 08:45:00,
2013-02-27 00:49:00,32.7,12.2,30.21,West,259,0.0,0.0,42,0.00,,SCT,0.00,VWS V14.01,2013-02-27 08:49:00,
2013-02-27 00:54:00,32.7,12.2,30.21,SSE,149,0.0,0.0,42,0.00,,SCT,0.00,VWS V14.01,2013-02-27 08:54:00,
2013-02-27 01:00:00,32.4,11.9,30.21,SSE,149,0.0,0.0,42,0.00,,SCT,0.00,VWS V14.01,2013-02-27 09:00:00,
2013-02-27 01:05:00,32.7,12.2,30.21,SW,218,0.0,0.0,42,0.00,,SCT,0.00,VWS V14.01,2013-02-27 09:05:00,
2013-02-27 01:10:00,32.9,12.3,30.21,SW,216,0.0,0.0,42,0.00,,SCT,0.00,VWS V14.01,2013-02-27 09:10:00,
2013-02-27 01:15:00,32.9,12.3,30.21,SE,133,3.1,5.4,42,0.00,,SCT,0.00,VWS V14.01,2013-02-27 09:15:00,
2013-02-27 01:20:00,32.9,12.9,30.21,SE,135,5.8,5.8,43,0.00,,SCT,0.00,VWS V14.01,2013-02-27 09:20:00,
2013-02-27 01:25:00,32.5,12.5,30.21,South,178,0.0,7.6,43,0.00,,SCT,0.00,VWS V14.01,2013-02-27 09:25:00,
2013-02-27 01:30:00,32.5,12.5,30.21,South,185,5.4,5.4,43,0.00,,SCT,0.00,VWS V14.01,2013-02-27 09:30:00,
2013-02-27 01:35:00,32.5,13.1,30.21,South,171,5.4,5.8,44,0.00,,SCT,0.00,VWS V14.01,2013-02-27 09:35:00,
2013-02-27 01:40:00,32.2,12.7,30.21,WSW,238,0.0,6.3,44,0.00,,SCT,0.00,VWS V14.01,2013-02-27 09:40:00,
2013-02-27 01:45:00,32.2,13.2,30.21,SSW,196,3.1,3.6,45,0.00,,SCT,0.00,VWS V14.01,2013-02-27 09:45:00,
2013-02-27 01:50:00,32.0,13.1,30.21,SE,132,0.0,7.6,45,0.00,,SCT,0.00,VWS V14.01,2013-02-27 09:50:00,
2013-02-27 01:55:00,31.8,12.9,30.21,SSE,151,0.0,7.6,45,0.00,,SCT,0.00,VWS V14.01,2013-02-27 09:55:00,
2013-02-27 02:00:00,31.6,12.8,30.21,SSE,168,0.0,2.7,45,0.00,,SCT,0.00,VWS V14.01,2013-02-27 10:00:00,
2013-02-27 02:05:00,31.6,12.2,30.21,SW,214,4.9,5.8,44,0.00,,SCT,0.00,VWS V14.01,2013-02-27 10:05:00,
2013-02-27 02:11:00,31.6,12.8,30.21,West,260,0.0,6.3,45,0.00,,SCT,0.00,VWS V14.01,2013-02-27 10:11:00,
2013-02-27 02:15:00,32.0,12.1,30.21,WSW,256,3.1,8.1,43,0.00,,SCT,0.00,VWS V14.01,2013-02-27 10:15:00,
2013-02-27 02:16:00,31.5,12.6,30.21,SSE,151,3.1,5.4,45,0.00,,SCT,0.00,VWS V14.01,2013-02-27 10:16:00,
2013-02-27 02:21:00,31.5,12.6,30.21,West,275,3.6,7.6,45,0.00,,SCT,0.00,VWS V14.01,2013-02-27 10:21:00,
2013-02-27 02:26:00,31.3,12.4,30.21,SW,214,3.1,7.6,45,0.00,,SCT,0.00,VWS V14.01,2013-02-27 10:26:00,
2013-02-27 02:30:00,31.3,12.4,30.21,SSE,158,3.1,8.7,45,0.00,,SCT,0.00,VWS V14.01,2013-02-27 10:30:00,
2013-02-27 02:31:00,31.3,12.9,30.21,SSE,166,5.8,5.8,46,0.00,,SCT,0.00,VWS V14.01,2013-02-27 10:31:00,
2013-02-27 02:36:00,31.3,12.4,30.21,South,184,0.0,6.3,45,0.00,,SCT,0.00,VWS V14.01,2013-02-27 10:36:00,
2013-02-27 02:41:00,31.1,12.8,30.21,SSE,166,3.6,6.3,46,0.00,,SCT,0.00,VWS V14.01,2013-02-27 10:41:00,
2013-02-27 02:45:00,30.6,13.2,30.21,SW,215,3.6,11.0,48,0.00,,SCT,0.00,VWS V14.01,2013-02-27 10:45:00,
2013-02-27 02:46:00,30.9,12.1,30.21,South,188,0.0,5.4,45,0.00,,SCT,0.00,VWS V14.01,2013-02-27 10:46:00,
2013-02-27 02:51:00,31.1,12.2,30.21,WNW,283,5.4,6.3,45,0.00,,SCT,0.00,VWS V14.01,2013-02-27 10:51:00,
2013-02-27 02:56:00,31.3,11.9,30.21,SE,129,3.1,6.3,44,0.00,,SCT,0.00,VWS V14.01,2013-02-27 10:56:00,
2013-02-27 03:00:00,30.4,14.0,30.21,SE,142,8.7,11.0,50,0.00,,SCT,0.00,VWS V14.01,2013-02-27 11:00:00,
2013-02-27 03:01:00,31.5,11.6,30.21,South,185,0.0,6.3,43,0.00,,SCT,0.00,VWS V14.01,2013-02-27 11:01:00,
2013-02-27 03:06:00,32.0,12.1,30.21,South,185,4.0,8.1,43,0.00,,SCT,0.00,VWS V14.01,2013-02-27 11:06:00,
2013-02-27 03:12:00,32.0,12.1,30.21,SSW,212,2.7,8.1,43,0.00,,SCT,0.00,VWS V14.01,2013-02-27 11:12:00,
2013-02-27 03:15:00,30.6,13.2,30.21,SSE,162,4.0,10.5,48,0.00,,SCT,0.00,VWS V14.01,2013-02-27 11:15:00,
2013-02-27 03:17:00,31.8,11.9,30.21,SSW,208,7.6,7.6,43,0.00,,SCT,0.00,VWS V14.01,2013-02-27 11:17:00,
2013-02-27 03:22:00,31.8,11.9,30.21,East,83,4.9,7.6,43,0.00,,SCT,0.00,VWS V14.01,2013-02-27 11:22:00,
2013-02-27 03:27:00,31.5,12.1,30.21,SE,140,8.7,8.7,44,0.00,,SCT,0.00,VWS V14.01,2013-02-27 11:27:00,
2013-02-27 03:30:00,30.9,13.1,30.21,WSW,258,3.6,8.7,47,0.00,,SCT,0.00,VWS V14.01,2013-02-27 11:30:00,
2013-02-27 03:32:00,31.1,12.2,30.21,SE,141,4.9,7.6,45,0.00,,SCT,0.00,VWS V14.01,2013-02-27 11:32:00,
2013-02-27 03:37:00,30.9,12.6,30.21,SSE,150,4.9,8.3,46,0.00,,SCT,0.00,VWS V14.01,2013-02-27 11:37:00,
2013-02-27 03:42:00,30.7,13.4,30.21,WSW,241,4.5,10.5,48,0.00,,SCT,0.00,VWS V14.01,2013-02-27 11:42:00,
2013-02-27 03:45:00,31.1,13.2,30.21,SW,236,3.6,7.2,47,0.00,,SCT,0.00,VWS V14.01,2013-02-27 11:45:00,
2013-02-27 03:47:00,30.6,13.2,30.21,South,180,6.3,9.6,48,0.00,,SCT,0.00,VWS V14.01,2013-02-27 11:47:00,
2013-02-27 03:52:00,30.4,13.5,30.21,South,187,4.0,11.0,49,0.00,,SCT,0.00,VWS V14.01,2013-02-27 11:52:00,
2013-02-27 03:57:00,30.4,13.5,30.21,WSW,252,3.1,11.0,49,0.00,,SCT,0.00,VWS V14.01,2013-02-27 11:57:00,
2013-02-27 04:00:00,31.3,13.4,30.21,WSW,238,2.7,8.1,47,0.00,,SCT,0.00,VWS V14.01,2013-02-27 12:00:00,
2013-02-27 04:02:00,30.4,14.0,30.21,SSW,206,2.7,10.1,50,0.00,,SCT,0.00,VWS V14.01,2013-02-27 12:02:00,
2013-02-27 04:07:00,30.6,14.1,30.21,SSW,196,7.6,10.5,50,0.00,,SCT,0.00,VWS V14.01,2013-02-27 12:07:00,
2013-02-27 04:12:00,30.6,13.7,30.21,South,188,5.8,10.5,49,0.00,,SCT,0.00,VWS V14.01,2013-02-27 12:12:00,
2013-02-27 04:15:00,31.1,13.2,30.21,WSW,238,5.4,7.6,47,0.00,,SCT,0.00,VWS V14.01,2013-02-27 12:15:00,
2013-02-27 04:17:00,30.7,13.4,30.21,SW,225,6.3,6.3,48,0.00,,SCT,0.00,VWS V14.01,2013-02-27 12:17:00,
2013-02-27 04:23:00,30.7,12.9,30.21,WSW,237,5.8,6.7,47,0.00,,SCT,0.00,VWS V14.01,2013-02-27 12:23:00,
2013-02-27 04:28:00,30.9,13.1,30.21,West,265,5.4,8.7,47,0.00,,SCT,0.00,VWS V14.01,2013-02-27 12:28:00,
2013-02-27 04:30:00,31.1,13.2,30.21,South,180,5.4,10.5,47,0.00,,SCT,0.00,VWS V14.01,2013-02-27 12:30:00,
2013-02-27 04:33:00,30.9,13.1,30.21,SSW,195,3.6,6.3,47,0.00,,SCT,0.00,VWS V14.01,2013-02-27 12:33:00,
2013-02-27 04:38:00,31.1,13.2,30.21,SE,145,5.8,7.2,47,0.00,,SCT,0.00,VWS V14.01,2013-02-27 12:38:00,
2013-02-27 04:43:00,31.1,13.2,30.21,SW,228,3.6,7.2,47,0.00,,SCT,0.00,VWS V14.01,2013-02-27 12:43:00,
2013-02-27 04:45:00,30.9,13.1,30.21,SSW,210,3.6,9.6,47,0.00,,SCT,0.00,VWS V14.01,2013-02-27 12:45:00,
2013-02-27 04:48:00,31.1,13.2,30.21,WSW,243,2.7,4.9,47,0.00,,SCT,0.00,VWS V14.01,2013-02-27 12:48:00,
2013-02-27 04:53:00,31.1,13.2,30.21,South,170,5.4,8.1,47,0.00,,SCT,0.00,VWS V14.01,2013-02-27 12:53:00,
2013-02-27 04:58:00,31.3,13.4,30.21,SSE,161,2.2,8.1,47,0.00,,SCT,0.00,VWS V14.01,2013-02-27 12:58:00,
2013-02-27 05:00:00,30.7,13.4,30.21,SE,133,4.0,12.3,48,0.00,,SCT,0.00,VWS V14.01,2013-02-27 13:00:00,
2013-02-27 05:03:00,31.1,13.2,30.21,ESE,119,3.6,7.6,47,0.00,,SCT,0.00,VWS V14.01,2013-02-27 13:03:00,
2013-02-27 05:08:00,31.1,13.2,30.21,SSE,159,3.1,7.6,47,0.00,,SCT,0.00,VWS V14.01,2013-02-27 13:08:00,
2013-02-27 05:13:00,31.1,13.2,30.21,South,173,4.9,7.6,47,0.00,,SCT,0.00,VWS V14.01,2013-02-27 13:13:00,
2013-02-27 05:15:00,30.7,13.9,30.21,South,185,3.1,13.2,49,0.00,,SCT,0.00,VWS V14.01,2013-02-27 13:15:00,
2013-02-27 05:18:00,31.1,13.2,30.21,SSW,206,5.8,8.1,47,0.00,,SCT,0.00,VWS V14.01,2013-02-27 13:18:00,
2013-02-27 05:23:00,31.1,13.2,30.21,WSW,237,3.1,10.5,47,0.00,,SCT,0.00,VWS V14.01,2013-02-27 13:23:00,
2013-02-27 05:28:00,31.1,13.2,30.21,SSE,156,3.6,10.5,47,0.00,,SCT,0.00,VWS V14.01,2013-02-27 13:28:00,
2013-02-27 05:30:00,30.7,13.4,30.21,SSE,154,7.6,11.0,48,0.00,,SCT,0.00,VWS V14.01,2013-02-27 13:30:00,
2013-02-27 05:34:00,30.9,13.1,30.21,SSW,204,7.2,7.2,47,0.00,,SCT,0.00,VWS V14.01,2013-02-27 13:34:00,
2013-02-27 05:39:00,30.9,13.1,30.21,South,178,4.0,8.1,47,0.00,,SCT,0.00,VWS V14.01,2013-02-27 13:39:00,
2013-02-27 05:44:00,30.9,13.1,30.21,ESE,120,5.4,9.6,47,0.00,,SCT,0.00,VWS V14.01,2013-02-27 13:44:00,
2013-02-27 05:45:00,31.1,13.2,30.21,SSW,208,8.3,13.2,47,0.00,,SCT,0.00,VWS V14.01,2013-02-27 13:45:00,
2013-02-27 05:49:00,30.7,13.4,30.21,West,265,3.6,7.2,48,0.00,,SCT,0.00,VWS V14.01,2013-02-27 13:49:00,
2013-02-27 05:54:00,30.6,13.2,30.21,South,169,4.0,12.3,48,0.00,,SCT,0.00,VWS V14.01,2013-02-27 13:54:00,
2013-02-27 05:59:00,30.7,13.4,30.21,SSW,205,3.6,12.3,48,0.00,,SCT,0.00,VWS V14.01,2013-02-27 13:59:00,
2013-02-27 06:00:00,32.2,13.2,30.21,South,171,4.0,11.0,45,0.00,,SCT,0.00,VWS V14.01,2013-02-27 14:00:00,
2013-02-27 06:04:00,30.7,13.9,30.21,SE,129,5.8,8.1,49,0.00,,SCT,0.00,VWS V14.01,2013-02-27 14:04:00,
2013-02-27 06:10:00,30.7,13.9,30.21,SE,136,6.3,8.7,49,0.00,,SCT,0.00,VWS V14.01,2013-02-27 14:10:00,
2013-02-27 06:15:00,30.7,13.9,30.21,South,185,3.1,13.2,49,0.00,,SCT,0.00,VWS V14.01,2013-02-27 14:15:00,
2013-02-27 06:20:00,30.7,13.9,30.21,SSW,195,4.9,8.7,49,0.00,,SCT,0.00,VWS V14.01,2013-02-27 14:20:00,
2013-02-27 06:25:00,30.7,13.9,30.21,South,179,7.6,10.1,49,0.00,,SCT,0.00,VWS V14.01,2013-02-27 14:25:00,
2013-02-27 06:30:00,30.7,13.4,30.21,SSE,154,7.6,7.6,48,0.00,,SCT,0.00,VWS V14.01,2013-02-27 14:30:00,
2013-02-27 06:35:00,30.9,13.6,30.21,WNW,289,6.3,9.6,48,0.00,,SCT,0.00,VWS V14.01,2013-02-27 14:35:00,
2013-02-27 06:40:00,30.9,13.6,30.21,WSW,247,3.1,13.2,48,0.00,,SCT,0.00,VWS V14.01,2013-02-27 14:40:00,
2013-02-27 06:45:00,31.1,13.2,30.21,South,174,7.6,8.3,47,0.00,,SCT,0.00,VWS V14.01,2013-02-27 14:45:00,
2013-02-27 06:50:00,31.3,12.9,30.21,South,183,8.7,11.0,46,0.00,,SCT,0.00,VWS V14.01,2013-02-27 14:50:00,
2013-02-27 06:55:00,31.8,12.9,30.21,WSW,244,5.4,11.0,45,0.00,,SCT,0.00,VWS V14.01,2013-02-27 14:55:00,
2013-02-27 07:00:00,32.2,13.2,30.21,SSW,192,8.1,8.1,45,0.00,,SCT,0.00,VWS V14.01,2013-02-27 15:00:00,
2013-02-27 07:05:00,32.2,13.2,30.21,SSW,203,4.5,11.9,45,0.00,,SCT,0.00,VWS V14.01,2013-02-27 15:05:00,
2013-02-27 07:10:00,32.4,13.4,30.21,South,188,7.6,11.9,45,0.00,,SCT,0.00,VWS V14.01,2013-02-27 15:10:00,
2013-02-27 07:15:00,32.5,13.1,30.21,SE,142,8.7,8.7,44,0.00,,SCT,0.00,VWS V14.01,2013-02-27 15:15:00,
2013-02-27 07:20:00,32.7,13.2,30.21,ESE,117,2.7,11.0,44,0.00,,SCT,0.00,VWS V14.01,2013-02-27 15:20:00,
2013-02-27 07:26:00,32.7,12.7,30.21,West,271,9.2,11.0,43,0.00,,SCT,0.00,VWS V14.01,2013-02-27 15:26:00,
2013-02-27 07:30:00,32.5,14.1,30.27,West,270,5.4,10.5,46,0.00,,SCT,0.00,VWS V14.01,2013-02-27 15:30:00,
2013-02-27 07:31:00,33.1,13.0,30.21,SSE,157,5.4,11.0,43,0.00,,SCT,0.00,VWS V14.01,2013-02-27 15:31:00,
2013-02-27 07:36:00,33.3,13.2,30.21,SSE,166,5.4,11.0,43,0.00,,SCT,0.00,VWS V14.01,2013-02-27 15:36:00,
2013-02-27 07:41:00,33.1,13.6,30.21,SSE,154,10.5,14.5,44,0.00,,SCT,0.00,VWS V14.01,2013-02-27 15:41:00,
2013-02-27 07:45:00,32.5,14.1,30.27,SW,219,5.4,8.7,46,0.00,,SCT,0.00,VWS V14.01,2013-02-27 15:45:00,
2013-02-27 07:46:00,32.9,13.4,30.21,SE,142,8.1,12.3,44,0.00,,SCT,0.00,VWS V14.01,2013-02-27 15:46:00,
2013-02-27 07:51:00,32.7,13.7,30.21,SW,222,5.4,12.3,45,0.00,,SCT,0.00,VWS V14.01,2013-02-27 15:51:00,
2013-02-27 07:56:00,32.7,13.7,30.24,SSE,165,4.0,12.3,45,0.00,,SCT,0.00,VWS V14.01,2013-02-27 15:56:00,
2013-02-27 08:00:00,32.5,15.0,30.27,SW,225,0.0,10.1,48,0.00,,SCT,0.00,VWS V14.01,2013-02-27 16:00:00,
2013-02-27 08:01:00,32.5,13.6,30.24,South,190,6.3,10.1,45,0.00,,SCT,0.00,VWS V14.01,2013-02-27 16:01:00,
2013-02-27 08:07:00,32.5,13.6,30.24,WSW,240,2.2,10.5,45,0.00,,SCT,0.00,VWS V14.01,2013-02-27 16:07:00,
2013-02-27 08:12:00,32.5,13.6,30.24,South,170,8.3,10.5,45,0.00,,SCT,0.00,VWS V14.01,2013-02-27 16:12:00,
2013-02-27 08:15:00,32.7,15.2,30.27,SE,143,3.6,8.3,48,0.00,,SCT,0.00,VWS V14.01,2013-02-27 16:15:00,
2013-02-27 08:17:00,32.5,13.6,30.24,WSW,257,4.9,6.3,45,0.00,,SCT,0.00,VWS V14.01,2013-02-27 16:17:00,
2013-02-27 08:22:00,32.5,14.1,30.24,WSW,238,6.3,10.5,46,0.00,,SCT,0.00,VWS V14.01,2013-02-27 16:22:00,
2013-02-27 08:27:00,32.5,14.1,30.27,SE,146,3.6,10.5,46,0.00,,SCT,0.00,VWS V14.01,2013-02-27 16:27:00,
2013-02-27 08:30:00,33.4,15.4,30.27,SW,222,2.7,5.8,47,0.00,,SCT,0.00,VWS V14.01,2013-02-27 16:30:00,
2013-02-27 08:32:00,32.5,14.1,30.27,WNW,287,3.6,6.3,46,0.00,,SCT,0.00,VWS V14.01,2013-02-27 16:32:00,
2013-02-27 08:37:00,32.5,14.1,30.27,SW,221,6.3,6.3,46,0.00,,SCT,0.00,VWS V14.01,2013-02-27 16:37:00,
2013-02-27 08:42:00,32.5,14.1,30.27,South,171,5.8,8.7,46,0.00,,SCT,0.00,VWS V14.01,2013-02-27 16:42:00,
2013-02-27 08:45:00,34.3,14.7,30.27,SSE,160,5.8,8.7,44,0.00,,SCT,0.00,VWS V14.01,2013-02-27 16:45:00,
2013-02-27 08:47:00,32.5,14.1,30.27,SE,145,10.1,10.1,46,0.00,,SCT,0.00,VWS V14.01,2013-02-27 16:47:00,
2013-02-27 08:52:00,32.4,14.4,30.27,SE,139,7.6,10.1,47,0.00,,SCT,0.00,VWS V14.01,2013-02-27 16:52:00,
2013-02-27 08:57:00,32.4,14.9,30.27,SE,146,2.7,10.1,48,0.00,,SCT,0.00,VWS V14.01,2013-02-27 16:57:00,
2013-02-27 09:00:00,34.5,14.9,30.27,SSW,193,5.4,9.6,44,0.00,,SCT,0.00,VWS V14.01,2013-02-27 17:00:00,
2013-02-27 09:02:00,32.5,15.0,30.27,SE,142,4.0,6.3,48,0.00,,SCT,0.00,VWS V14.01,2013-02-27 17:02:00,
2013-02-27 09:07:00,32.5,15.0,30.27,SSE,163,3.1,8.3,48,0.00,,SCT,0.00,VWS V14.01,2013-02-27 17:07:00,
2013-02-27 09:12:00,32.7,15.7,30.27,South,190,0.0,8.3,49,0.00,,SCT,0.00,VWS V14.01,2013-02-27 17:12:00,
2013-02-27 09:15:00,35.2,15.5,30.27,SE,126,7.2,10.5,44,0.00,,SCT,0.00,VWS V14.01,2013-02-27 17:15:00,
2013-02-27 09:18:00,32.7,15.2,30.27,SSE,168,3.6,5.4,48,0.00,,SCT,0.00,VWS V14.01,2013-02-27 17:18:00,
2013-02-27 09:23:00,33.1,15.5,30.27,SE,133,5.4,5.8,48,0.00,,SCT,0.00,VWS V14.01,2013-02-27 17:23:00,
2013-02-27 09:28:00,33.3,15.2,30.27,West,273,0.0,5.8,47,0.00,,SCT,0.00,VWS V14.01,2013-02-27 17:28:00,
2013-02-27 09:30:00,36.7,17.4,30.27,SW,214,4.9,12.8,45,0.00,,SCT,0.00,VWS V14.01,2013-02-27 17:30:00,
2013-02-27 09:33:00,33.6,15.1,30.27,SE,145,4.9,5.8,46,0.00,,SCT,0.00,VWS V14.01,2013-02-27 17:33:00,
2013-02-27 09:38:00,34.0,14.4,30.27,South,179,4.0,8.3,44,0.00,,SCT,0.00,VWS V14.01,2013-02-27 17:38:00,
2013-02-27 09:43:00,34.2,14.5,30.27,SSE,154,6.3,8.7,44,0.00,,SCT,0.00,VWS V14.01,2013-02-27 17:43:00,
2013-02-27 09:45:00,37.0,17.7,30.27,East,89,5.8,11.0,45,0.00,,SCT,0.00,VWS V14.01,2013-02-27 17:45:00,
2013-02-27 09:48:00,34.3,14.7,30.27,SE,126,5.4,8.7,44,0.00,,SCT,0.00,VWS V14.01,2013-02-27 17:48:00,
2013-02-27 09:53:00,34.5,14.9,30.27,SE,130,7.6,8.7,44,0.00,,SCT,0.00,VWS V14.01,2013-02-27 17:53:00,
2013-02-27 09:58:00,34.5,14.3,30.27,SSW,195,5.8,9.6,43,0.00,,SCT,0.00,VWS V14.01,2013-02-27 17:58:00,
2013-02-27 10:00:00,37.2,23.4,30.27,SW,224,6.3,11.0,57,0.00,,SCT,0.00,VWS V14.01,2013-02-27 18:00:00,
2013-02-27 10:03:00,34.5,14.9,30.27,South,171,3.6,10.5,44,0.00,,SCT,0.00,VWS V14.01,2013-02-27 18:03:00,
2013-02-27 10:08:00,34.7,15.0,30.27,SSW,203,4.9,10.5,44,0.00,,SCT,0.00,VWS V14.01,2013-02-27 18:08:00,
2013-02-27 10:13:00,35.1,15.4,30.27,SSW,197,8.1,10.5,44,0.00,,SCT,0.00,VWS V14.01,2013-02-27 18:13:00,
2013-02-27 10:15:00,38.1,23.0,30.27,SW,214,7.6,10.1,54,0.00,,SCT,0.00,VWS V14.01,2013-02-27 18:15:00,
2013-02-27 10:18:00,35.6,16.4,30.27,ESE,116,4.0,7.6,45,0.00,,SCT,0.00,VWS V14.01,2013-02-27 18:18:00,
2013-02-27 10:23:00,36.1,16.9,30.27,SSE,163,6.3,8.3,45,0.00,,SCT,0.00,VWS V14.01,2013-02-27 18:23:00,
2013-02-27 10:29:00,36.7,16.8,30.27,South,182,8.1,12.8,44,0.00,,SCT,0.00,VWS V14.01,2013-02-27 18:29:00,
2013-02-27 10:30:00,38.7,22.1,30.27,SE,146,3.1,10.1,51,0.00,,SCT,0.00,VWS V14.01,2013-02-27 18:30:00,
2013-02-27 10:34:00,36.9,17.0,30.27,SE,136,3.1,11.0,44,0.00,,SCT,0.00,VWS V14.01,2013-02-27 18:34:00,
2013-02-27 10:39:00,36.9,17.5,30.27,ESE,109,4.9,11.0,45,0.00,,SCT,0.00,VWS V14.01,2013-02-27 18:39:00,
2013-02-27 10:44:00,37.0,17.7,30.27,WSW,239,3.1,11.0,45,0.00,,SCT,0.00,VWS V14.01,2013-02-27 18:44:00,
2013-02-27 10:45:00,39.6,18.9,30.24,SE,145,8.7,15.4,43,0.00,,SCT,0.00,VWS V14.01,2013-02-27 18:45:00,
2013-02-27 10:49:00,37.2,19.4,30.27,SSE,147,8.3,11.0,48,0.00,,SCT,0.00,VWS V14.01,2013-02-27 18:49:00,
2013-02-27 10:54:00,37.2,22.1,30.27,South,176,10.5,11.0,54,0.00,,SCT,0.00,VWS V14.01,2013-02-27 18:54:00,
2013-02-27 10:59:00,37.2,23.4,30.27,SE,136,11.0,11.0,57,0.00,,SCT,0.00,VWS V14.01,2013-02-27 18:59:00,
2013-02-27 11:00:00,42.1,20.7,30.24,South,179,11.0,14.5,42,0.00,,SCT,0.00,VWS V14.01,2013-02-27 19:00:00,
2013-02-27 11:04:00,37.4,23.1,30.27,WSW,257,8.1,10.1,56,0.00,,SCT,0.00,VWS V14.01,2013-02-27 19:04:00,
2013-02-27 11:09:00,37.9,24.1,30.27,South,178,5.8,10.1,57,0.00,,SCT,0.00,VWS V14.01,2013-02-27 19:09:00,
2013-02-27 11:14:00,38.1,23.4,30.27,SE,132,8.3,10.1,55,0.00,,SCT,0.00,VWS V14.01,2013-02-27 19:14:00,
2013-02-27 11:15:00,41.4,21.6,30.24,SSE,152,11.0,16.8,45,0.00,,SCT,0.00,VWS V14.01,2013-02-27 19:15:00,
2013-02-27 11:19:00,38.1,22.5,30.27,SW,234,5.4,8.7,53,0.00,,SCT,0.00,VWS V14.01,2013-02-27 19:19:00,
2013-02-27 11:24:00,38.3,22.2,30.27,SSW,209,5.4,10.1,52,0.00,,SCT,0.00,VWS V14.01,2013-02-27 19:24:00,
2013-02-27 11:29:00,38.7,22.1,30.27,South,180,4.0,10.1,51,0.00,,SCT,0.00,VWS V14.01,2013-02-27 19:29:00,
2013-02-27 11:30:00,42.3,23.5,30.24,SE,129,9.6,13.2,47,0.00,,SCT,0.00,VWS V14.01,2013-02-27 19:30:00,
2013-02-27 11:34:00,39.4,21.3,30.27,ESE,118,5.8,15.4,48,0.00,,SCT,0.00,VWS V14.01,2013-02-27 19:34:00,
2013-02-27 11:40:00,39.7,19.1,30.24,SSW,204,5.8,15.4,43,0.00,,SCT,0.00,VWS V14.01,2013-02-27 19:40:00,
2013-02-27 11:45:00,39.6,18.9,30.24,SE,145,8.7,15.4,43,0.00,,SCT,0.00,VWS V14.01,2013-02-27 19:45:00,
2013-02-27 11:50:00,40.3,19.6,30.24,SW,226,7.2,14.5,43,0.00,,SCT,0.00,VWS V14.01,2013-02-27 19:50:00,
2013-02-27 11:55:00,41.5,20.2,30.24,SE,135,7.6,14.5,42,0.00,,SCT,0.00,VWS V14.01,2013-02-27 19:55:00,
2013-02-27 12:00:00,42.1,20.7,30.24,South,179,11.0,14.5,42,0.00,,SCT,0.00,VWS V14.01,2013-02-27 20:00:00,
2013-02-27 12:05:00,41.5,20.7,30.24,ESE,121,5.8,13.2,43,0.00,,SCT,0.00,VWS V14.01,2013-02-27 20:05:00,
2013-02-27 12:10:00,41.2,20.9,30.24,South,176,8.3,16.8,44,0.00,,SCT,0.00,VWS V14.01,2013-02-27 20:10:00,
2013-02-27 12:15:00,41.4,21.6,30.24,SW,235,7.6,11.0,45,0.00,,SCT,0.00,VWS V14.01,2013-02-27 20:15:00,
2013-02-27 12:20:00,41.4,22.7,30.24,SE,133,7.6,12.8,47,0.00,,SCT,0.00,VWS V14.01,2013-02-27 20:20:00,
2013-02-27 12:25:00,41.7,23.0,30.24,SE,142,10.5,12.8,47,0.00,,SCT,0.00,VWS V14.01,2013-02-27 20:25:00,
2013-02-27 12:30:00,42.3,23.5,30.24,East,94,6.3,9.6,47,0.00,,SCT,0.00,VWS V14.01,2013-02-27 20:30:00,
2013-02-27 12:35:00,42.6,23.8,30.24,South,191,5.4,9.6,47,0.00,,SCT,0.00,VWS V14.01,2013-02-27 20:35:00,
2013-02-27 12:40:00,43.0,23.6,30.24,ENE,64,4.0,9.6,46,0.00,,SCT,0.00,VWS V14.01,2013-02-27 20:40:00,
2013-02-27 12:45:00,43.5,24.1,30.24,SE,134,5.4,6.3,46,0.00,,SCT,0.00,VWS V14.01,2013-02-27 20:45:00,
2013-02-27 12:50:00,43.7,24.3,30.24,SSE,168,4.0,9.2,46,0.00,,SCT,0.00,VWS V14.01,2013-02-27 20:50:00,
2013-02-27 12:55:00,44.1,25.6,30.24,SSW,197,10.1,10.1,48,0.00,,SCT,0.00,VWS V14.01,2013-02-27 20:55:00,
2013-02-27 13:00:00,43.9,26.0,30.24,SW,224,8.7,8.7,49,0.00,,SCT,0.00,VWS V14.01,2013-02-27 21:00:00,
2013-02-27 13:05:00,43.5,25.6,30.24,South,181,7.2,12.3,49,0.00,,SCT,0.00,VWS V14.01,2013-02-27 21:05:00,
2013-02-27 13:10:00,43.3,26.0,30.24,SSE,151,10.5,12.3,50,0.00,,SCT,0.00,VWS V14.01,2013-02-27 21:10:00,
2013-02-27 13:15:00,43.3,26.0,30.24,South,180,5.4,8.3,50,0.00,,SCT,0.00,VWS V14.01,2013-02-27 21:15:00,
2013-02-27 13:21:00,43.2,25.8,30.24,South,175,5.8,10.5,50,0.00,,SCT,0.00,VWS V14.01,2013-02-27 21:21:00,
2013-02-27 13:26:00,43.0,26.1,30.24,SW,214,3.6,10.5,51,0.00,,SCT,0.00,VWS V14.01,2013-02-27 21:26:00,
2013-02-27 13:30:00,43.2,26.7,30.24,SW,221,7.2,13.2,52,0.00,,SCT,0.00,VWS V14.01,2013-02-27 21:30:00,
2013-02-27 13:31:00,42.8,26.9,30.24,West,260,8.1,8.1,53,0.00,,SCT,0.00,VWS V14.01,2013-02-27 21:31:00,
2013-02-27 13:36:00,42.6,27.6,30.24,SW,222,3.6,10.5,55,0.00,,SCT,0.00,VWS V14.01,2013-02-27 21:36:00,
2013-02-27 13:41:00,42.6,28.0,30.24,SW,221,0.0,10.5,56,0.00,,SCT,0.00,VWS V14.01,2013-02-27 21:41:00,
2013-02-27 13:45:00,42.8,27.8,30.24,SW,228,5.4,8.7,55,0.00,,SCT,0.00,VWS V14.01,2013-02-27 21:45:00,
2013-02-27 13:46:00,42.4,27.9,30.24,SSW,211,3.1,5.8,56,0.00,,SCT,0.00,VWS V14.01,2013-02-27 21:46:00,
2013-02-27 13:51:00,42.3,27.3,30.24,SE,135,4.0,8.7,55,0.00,,SCT,0.00,VWS V14.01,2013-02-27 21:51:00,
2013-02-27 13:56:00,42.3,27.3,30.24,SW,227,0.0,8.7,55,0.00,,SCT,0.00,VWS V14.01,2013-02-27 21:56:00,
2013-02-27 14:00:00,42.6,29.7,30.24,NNW,346,3.6,8.3,60,0.00,,SCT,0.00,VWS V14.01,2013-02-27 22:00:00,
2013-02-27 14:01:00,42.3,27.3,30.24,West,270,4.9,4.9,55,0.00,,SCT,0.00,VWS V14.01,2013-02-27 22:01:00,
2013-02-27 14:06:00,42.4,27.4,30.24,WSW,241,2.7,8.3,55,0.00,,SCT,0.00,VWS V14.01,2013-02-27 22:06:00,
2013-02-27 14:11:00,42.8,26.9,30.24,SSW,210,5.8,8.3,53,0.00,,SCT,0.00,VWS V14.01,2013-02-27 22:11:00,
2013-02-27 14:15:00,42.6,29.7,30.24,WNW,294,0.0,10.1,60,0.00,,SCT,0.00,VWS V14.01,2013-02-27 22:15:00,
2013-02-27 14:16:00,43.0,26.6,30.24,WSW,238,3.6,6.3,52,0.00,,SCT,0.00,VWS V14.01,2013-02-27 22:16:00,
2013-02-27 14:21:00,43.0,26.6,30.24,SW,236,5.8,13.2,52,0.00,,SCT,0.00,VWS V14.01,2013-02-27 22:21:00,
2013-02-27 14:26:00,43.2,26.7,30.24,WSW,245,2.7,13.2,52,0.00,,SCT,0.00,VWS V14.01,2013-02-27 22:26:00,
2013-02-27 14:30:00,43.2,28.1,30.24,WSW,245,3.6,8.7,55,0.00,,SCT,0.00,VWS V14.01,2013-02-27 22:30:00,
2013-02-27 14:31:00,43.2,27.2,30.24,WSW,249,3.1,7.2,53,0.00,,SCT,0.00,VWS V14.01,2013-02-27 22:31:00,
2013-02-27 14:36:00,43.0,27.0,30.24,SSW,200,6.3,8.1,53,0.00,,SCT,0.00,VWS V14.01,2013-02-27 22:36:00,
2013-02-27 14:41:00,43.0,27.5,30.24,WNW,292,7.6,8.7,54,0.00,,SCT,0.00,VWS V14.01,2013-02-27 22:41:00,
2013-02-27 14:45:00,43.5,28.0,30.24,NW,315,5.4,5.8,54,0.00,,SCT,0.00,VWS V14.01,2013-02-27 22:45:00,
2013-02-27 14:46:00,42.8,27.8,30.24,West,274,0.0,5.8,55,0.00,,SCT,0.00,VWS V14.01,2013-02-27 22:46:00,
2013-02-27 14:52:00,42.8,28.6,30.24,West,278,5.4,8.3,57,0.00,,SCT,0.00,VWS V14.01,2013-02-27 22:52:00,
2013-02-27 14:57:00,42.6,29.3,30.24,WNW,288,7.6,8.3,59,0.00,,SCT,0.00,VWS V14.01,2013-02-27 22:57:00,
2013-02-27 15:00:00,43.7,27.7,30.24,West,262,0.0,5.4,53,0.00,,SCT,0.00,VWS V14.01,2013-02-27 23:00:00,
2013-02-27 15:02:00,42.4,29.5,30.24,WNW,290,4.9,10.1,60,0.00,,SCT,0.00,VWS V14.01,2013-02-27 23:02:00,
2013-02-27 15:07:00,42.4,30.0,30.24,WSW,247,2.7,10.1,61,0.00,,SCT,0.00,VWS V14.01,2013-02-27 23:07:00,
2013-02-27 15:12:00,42.4,29.5,30.24,West,259,3.1,10.1,60,0.00,,SCT,0.00,VWS V14.01,2013-02-27 23:12:00,
2013-02-27 15:15:00,43.7,26.8,30.24,SSW,203,0.0,6.3,51,0.00,,SCT,0.00,VWS V14.01,2013-02-27 23:15:00,
2013-02-27 15:17:00,42.6,29.7,30.24,SW,222,3.6,3.6,60,0.00,,SCT,0.00,VWS V14.01,2013-02-27 23:17:00,
2013-02-27 15:22:00,42.8,29.1,30.24,SSW,203,2.7,5.4,58,0.00,,SCT,0.00,VWS V14.01,2013-02-27 23:22:00,
2013-02-27 15:27:00,43.0,28.4,30.24,West,278,5.4,5.4,56,0.00,,SCT,0.00,VWS V14.01,2013-02-27 23:27:00,
2013-02-27 15:30:00,43.5,25.1,30.24,WNW,282,4.0,6.3,48,0.00,,SCT,0.00,VWS V14.01,2013-02-27 23:30:00,
2013-02-27 15:32:00,43.2,28.1,30.24,SW,230,0.0,4.0,55,0.00,,SCT,0.00,VWS V14.01,2013-02-27 23:32:00,
2013-02-27 15:37:00,43.3,28.3,30.24,WNW,286,2.7,5.8,55,0.00,,SCT,0.00,VWS V14.01,2013-02-27 23:37:00,
2013-02-27 15:42:00,43.5,28.0,30.24,North,357,0.0,5.8,54,0.00,,SCT,0.00,VWS V14.01,2013-02-27 23:42:00,
2013-02-27 15:45:00,43.3,25.5,30.24,SSW,209,5.4,8.7,49,0.00,,SCT,0.00,VWS V14.01,2013-02-27 23:45:00,
2013-02-27 15:47:00,43.5,28.0,30.24,SSW,197,0.0,5.4,54,0.00,,SCT,0.00,VWS V14.01,2013-02-27 23:47:00,
2013-02-27 15:53:00,43.7,28.2,30.24,SSW,199,0.0,5.4,54,0.00,,SCT,0.00,VWS V14.01,2013-02-27 23:53:00,
2013-02-27 15:58:00,43.7,27.7,30.24,West,276,0.0,5.4,53,0.00,,SCT,0.00,VWS V14.01,2013-02-27 23:58:00,
2013-02-27 16:00:00,43.0,25.1,30.24,South,173,2.7,8.7,49,0.00,,SCT,0.00,VWS V14.01,2013-02-28 00:00:00,
2013-02-27 16:03:00,43.7,27.2,30.24,SSW,208,0.0,4.0,52,0.00,,SCT,0.00,VWS V14.01,2013-02-28 00:03:00,
2013-02-27 16:08:00,43.7,26.8,30.24,South,170,3.1,5.4,51,0.00,,SCT,0.00,VWS V14.01,2013-02-28 00:08:00,
2013-02-27 16:13:00,43.7,26.8,30.24,West,259,0.0,6.3,51,0.00,,SCT,0.00,VWS V14.01,2013-02-28 00:13:00,
2013-02-27 16:15:00,42.8,24.5,30.24,SW,226,3.1,9.6,48,0.00,,SCT,0.00,VWS V14.01,2013-02-28 00:15:00,
2013-02-27 16:18:00,43.5,26.6,30.24,SSW,204,0.0,0.0,51,0.00,,SCT,0.00,VWS V14.01,2013-02-28 00:18:00,
2013-02-27 16:23:00,43.5,26.6,30.24,WNW,286,3.6,4.9,51,0.00,,SCT,0.00,VWS V14.01,2013-02-28 00:23:00,
2013-02-27 16:28:00,43.5,25.1,30.24,WSW,246,3.6,6.3,48,0.00,,SCT,0.00,VWS V14.01,2013-02-28 00:28:00,
2013-02-27 16:30:00,42.6,22.2,30.24,SW,229,4.9,7.6,44,0.00,,SCT,0.00,VWS V14.01,2013-02-28 00:30:00,
2013-02-27 16:33:00,43.5,25.1,30.24,WNW,287,5.4,8.3,48,0.00,,SCT,0.00,VWS V14.01,2013-02-28 00:33:00,
2013-02-27 16:38:00,43.3,25.5,30.24,SW,219,0.0,8.3,49,0.00,,SCT,0.00,VWS V14.01,2013-02-28 00:38:00,
2013-02-27 16:43:00,43.3,25.5,30.24,WNW,298,4.0,8.7,49,0.00,,SCT,0.00,VWS V14.01,2013-02-28 00:43:00,
2013-02-27 16:45:00,42.4,21.5,30.24,SSW,208,3.1,6.3,43,0.00,,SCT,0.00,VWS V14.01,2013-02-28 00:45:00,
2013-02-27 16:49:00,43.2,25.3,30.24,South,177,6.3,8.7,49,0.00,,SCT,0.00,VWS V14.01,2013-02-28 00:49:00,
2013-02-27 16:54:00,43.2,25.3,30.24,WNW,295,5.4,8.7,49,0.00,,SCT,0.00,VWS V14.01,2013-02-28 00:54:00,
2013-02-27 16:59:00,43.0,25.1,30.24,SSW,208,4.0,8.7,49,0.00,,SCT,0.00,VWS V14.01,2013-02-28 00:59:00,
2013-02-27 17:00:00,42.3,20.3,30.24,South,169,4.0,6.3,41,0.00,,SCT,0.00,VWS V14.01,2013-02-28 01:00:00,
2013-02-27 17:04:00,43.0,25.1,30.24,SW,235,3.6,8.1,49,0.00,,SCT,0.00,VWS V14.01,2013-02-28 01:04:00,
2013-02-27 17:09:00,42.8,24.5,30.24,SSE,168,4.9,8.1,48,0.00,,SCT,0.00,VWS V14.01,2013-02-28 01:09:00,
2013-02-27 17:14:00,42.8,24.5,30.24,ESE,114,2.7,9.6,48,0.00,,SCT,0.00,VWS V14.01,2013-02-28 01:14:00,
2013-02-27 17:15:00,41.9,18.8,30.24,WSW,240,0.0,5.8,39,0.00,,SCT,0.00,VWS V14.01,2013-02-28 01:15:00,
2013-02-27 17:19:00,42.8,24.0,30.24,WSW,252,4.0,7.6,47,0.00,,SCT,0.00,VWS V14.01,2013-02-28 01:19:00,
2013-02-27 17:24:00,42.8,23.5,30.24,SW,216,0.0,7.6,46,0.00,,SCT,0.00,VWS V14.01,2013-02-28 01:24:00,
2013-02-27 17:29:00,42.6,22.2,30.24,WNW,289,0.0,7.6,44,0.00,,SCT,0.00,VWS V14.01,2013-02-28 01:29:00,
2013-02-27 17:30:00,41.7,18.6,30.24,WSW,255,3.6,7.6,39,0.00,,SCT,0.00,VWS V14.01,2013-02-28 01:30:00,
2013-02-27 17:34:00,42.6,22.2,30.24,SW,231,0.0,6.3,44,0.00,,SCT,0.00,VWS V14.01,2013-02-28 01:34:00,
2013-02-27 17:39:00,42.4,22.1,30.24,SSE,150,0.0,6.3,44,0.00,,SCT,0.00,VWS V14.01,2013-02-28 01:39:00,
2013-02-27 17:44:00,42.4,21.5,30.24,WSW,244,3.6,6.3,43,0.00,,SCT,0.00,VWS V14.01,2013-02-28 01:44:00,
2013-02-27 17:45:00,41.5,19.0,30.24,WSW,249,3.1,8.1,40,0.00,,SCT,0.00,VWS V14.01,2013-02-28 01:45:00,
2013-02-27 17:50:00,42.4,21.5,30.24,West,264,0.0,5.8,43,0.00,,SCT,0.00,VWS V14.01,2013-02-28 01:50:00,
2013-02-27 17:55:00,42.3,20.3,30.24,SSW,197,0.0,5.8,41,0.00,,SCT,0.00,VWS V14.01,2013-02-28 01:55:00,
2013-02-27 18:00:00,42.3,20.3,30.24,South,169,4.0,6.3,41,0.00,,SCT,0.00,VWS V14.01,2013-02-28 02:00:00,
2013-02-27 18:05:00,42.1,19.5,30.24,WNW,285,4.0,4.0,40,0.00,,SCT,0.00,VWS V14.01,2013-02-28 02:05:00,
2013-02-27 18:10:00,41.9,19.4,30.24,SW,235,5.8,5.8,40,0.00,,SCT,0.00,VWS V14.01,2013-02-28 02:10:00,
2013-02-27 18:15:00,41.9,18.8,30.24,SSW,209,4.9,4.9,39,0.00,,SCT,0.00,VWS V14.01,2013-02-28 02:15:00,
2013-02-27 18:20:00,41.9,18.8,30.24,WSW,246,4.0,7.6,39,0.00,,SCT,0.00,VWS V14.01,2013-02-28 02:20:00,
2013-02-27 18:25:00,41.7,18.6,30.24,WNW,282,3.1,7.6,39,0.00,,SCT,0.00,VWS V14.01,2013-02-28 02:25:00,
2013-02-27 18:30:00,41.7,18.6,30.24,NW,307,5.4,5.4,39,0.00,,SCT,0.00,VWS V14.01,2013-02-28 02:30:00,
2013-02-27 18:35:00,41.5,19.0,30.24,WSW,250,5.4,8.1,40,0.00,,SCT,0.00,VWS V14.01,2013-02-28 02:35:00,
2013-02-27 18:40:00,41.5,19.0,30.24,NW,326,0.0,8.1,40,0.00,,SCT,0.00,VWS V14.01,2013-02-28 02:40:00,
2013-02-27 18:45:00,41.5,19.0,30.24,WNW,301,3.1,3.1,40,0.00,,SCT,0.00,VWS V14.01,2013-02-28 02:45:00,
2013-02-27 18:50:00,41.4,18.9,30.24,WSW,244,2.7,7.2,40,0.00,,SCT,0.00,VWS V14.01,2013-02-28 02:50:00,
2013-02-27 18:56:00,41.2,18.7,30.24,NW,314,2.7,7.2,40,0.00,,SCT,0.00,VWS V14.01,2013-02-28 02:56:00,
2013-02-27 19:00:00,40.5,21.8,30.24,WSW,246,2.7,6.3,47,0.00,,SCT,0.00,VWS V14.01,2013-02-28 03:00:00,
2013-02-27 19:01:00,41.2,18.7,30.24,West,264,4.0,5.4,40,0.00,,SCT,0.00,VWS V14.01,2013-02-28 03:01:00,
2013-02-27 19:06:00,41.2,18.7,30.24,WSW,240,0.0,7.2,40,0.00,,SCT,0.00,VWS V14.01,2013-02-28 03:06:00,
2013-02-27 19:11:00,41.2,18.7,30.24,NNE,26,0.0,7.2,40,0.00,,SCT,0.00,VWS V14.01,2013-02-28 03:11:00,
2013-02-27 19:15:00,40.3,22.7,30.24,South,186,0.0,5.4,49,0.00,,SCT,0.00,VWS V14.01,2013-02-28 03:15:00,
2013-02-27 19:16:00,41.0,18.5,30.24,WNW,293,0.0,0.0,40,0.00,,SCT,0.00,VWS V14.01,2013-02-28 03:16:00,
2013-02-27 19:21:00,41.0,18.5,30.24,SSW,200,0.0,3.1,40,0.00,,SCT,0.00,VWS V14.01,2013-02-28 03:21:00,
2013-02-27 19:26:00,40.8,19.0,30.24,SSW,193,0.0,3.1,41,0.00,,SCT,0.00,VWS V14.01,2013-02-28 03:26:00,
2013-02-27 19:30:00,40.3,23.6,30.24,South,171,5.8,6.3,51,0.00,,SCT,0.00,VWS V14.01,2013-02-28 03:30:00,
2013-02-27 19:31:00,40.8,19.0,30.24,SSE,157,4.0,4.0,41,0.00,,SCT,0.00,VWS V14.01,2013-02-28 03:31:00,
2013-02-27 19:36:00,40.8,19.5,30.24,WSW,250,0.0,5.4,42,0.00,,SCT,0.00,VWS V14.01,2013-02-28 03:36:00,
2013-02-27 19:41:00,40.6,19.4,30.24,WSW,250,0.0,5.4,42,0.00,,SCT,0.00,VWS V14.01,2013-02-28 03:41:00,
2013-02-27 19:45:00,40.3,24.5,30.24,SE,144,4.0,9.2,53,0.00,,SCT,0.00,VWS V14.01,2013-02-28 03:45:00,
2013-02-27 19:46:00,40.6,19.4,30.24,SSW,202,0.0,4.9,42,0.00,,SCT,0.00,VWS V14.01,2013-02-28 03:46:00,
2013-02-27 19:51:00,40.6,20.5,30.24,SSW,209,3.1,5.4,44,0.00,,SCT,0.00,VWS V14.01,2013-02-28 03:51:00,
2013-02-27 19:56:00,40.5,20.8,30.24,SSE,164,4.0,6.3,45,0.00,,SCT,0.00,VWS V14.01,2013-02-28 03:56:00,
2013-02-27 20:00:00,39.9,24.6,30.24,SW,232,0.0,7.6,54,0.00,,SCT,0.00,VWS V14.01,2013-02-28 04:00:00,
2013-02-27 20:02:00,40.5,22.3,30.24,WSW,246,3.6,4.5,48,0.00,,SCT,0.00,VWS V14.01,2013-02-28 04:02:00,
2013-02-27 20:07:00,40.5,22.8,30.24,SW,219,0.0,5.4,49,0.00,,SCT,0.00,VWS V14.01,2013-02-28 04:07:00,
2013-02-27 20:12:00,40.5,22.8,30.24,South,169,0.0,5.4,49,0.00,,SCT,0.00,VWS V14.01,2013-02-28 04:12:00,
2013-02-27 20:15:00,39.6,25.2,30.24,SW,223,3.6,8.7,56,0.00,,SCT,0.00,VWS V14.01,2013-02-28 04:15:00,
2013-02-27 20:17:00,40.3,22.7,30.24,WSW,237,0.0,0.0,49,0.00,,SCT,0.00,VWS V14.01,2013-02-28 04:17:00,
2013-02-27 20:22:00,40.3,23.1,30.24,SSE,150,5.8,5.8,50,0.00,,SCT,0.00,VWS V14.01,2013-02-28 04:22:00,
2013-02-27 20:27:00,40.3,23.1,30.24,South,172,3.6,6.3,50,0.00,,SCT,0.00,VWS V14.01,2013-02-28 04:27:00,
2013-02-27 20:30:00,39.4,25.0,30.27,West,262,4.0,8.7,56,0.00,,SCT,0.00,VWS V14.01,2013-02-28 04:30:00,
2013-02-27 20:32:00,40.1,23.4,30.24,WSW,251,5.4,7.6,51,0.00,,SCT,0.00,VWS V14.01,2013-02-28 04:32:00,
2013-02-27 20:37:00,40.3,24.5,30.24,SSE,166,3.6,9.2,53,0.00,,SCT,0.00,VWS V14.01,2013-02-28 04:37:00,
2013-02-27 20:42:00,40.3,24.5,30.24,ESE,110,6.3,9.2,53,0.00,,SCT,0.00,VWS V14.01,2013-02-28 04:42:00,
2013-02-27 20:45:00,39.4,25.4,30.27,South,179,4.0,7.2,57,0.00,,SCT,0.00,VWS V14.01,2013-02-28 04:45:00,
2013-02-27 20:47:00,40.3,24.5,30.24,SE,146,7.2,7.6,53,0.00,,SCT,0.00,VWS V14.01,2013-02-28 04:47:00,
2013-02-27 20:52:00,40.1,24.8,30.24,WSW,240,5.4,7.6,54,0.00,,SCT,0.00,VWS V14.01,2013-02-28 04:52:00,
2013-02-27 20:57:00,39.9,24.6,30.24,WSW,244,3.1,7.6,54,0.00,,SCT,0.00,VWS V14.01,2013-02-28 04:57:00,
2013-02-27 21:00:00,39.9,24.6,30.24,SW,232,0.0,7.6,54,0.00,,SCT,0.00,VWS V14.01,2013-02-28 05:00:00,
2013-02-27 21:06:00,39.7,24.9,30.24,WSW,244,4.0,7.6,55,0.00,,SCT,0.00,VWS V14.01,2013-02-28 05:06:00,
2013-02-27 21:11:00,39.7,24.9,30.24,SE,143,3.1,8.7,55,0.00,,SCT,0.00,VWS V14.01,2013-02-28 05:11:00,
2013-02-27 21:15:00,39.2,25.3,30.24,SW,227,0.0,8.1,57,0.00,,SCT,0.00,VWS V14.01,2013-02-28 05:15:00,
2013-02-27 21:16:00,39.6,25.2,30.24,WSW,244,4.0,6.3,56,0.00,,SCT,0.00,VWS V14.01,2013-02-28 05:16:00,
2013-02-27 21:21:00,39.6,25.2,30.24,SSW,206,5.4,7.6,56,0.00,,SCT,0.00,VWS V14.01,2013-02-28 05:21:00,
2013-02-27 21:26:00,39.4,25.0,30.27,WNW,300,0.0,8.7,56,0.00,,SCT,0.00,VWS V14.01,2013-02-28 05:26:00,
2013-02-27 21:30:00,39.4,25.4,30.24,West,266,4.9,10.1,57,0.00,,SCT,0.00,VWS V14.01,2013-02-28 05:30:00,
2013-02-27 21:31:00,39.4,25.4,30.27,SW,217,2.7,5.4,57,0.00,,SCT,0.00,VWS V14.01,2013-02-28 05:31:00,
2013-02-27 21:36:00,39.4,25.4,30.27,West,272,5.8,6.3,57,0.00,,SCT,0.00,VWS V14.01,2013-02-28 05:36:00,
2013-02-27 21:41:00,39.4,25.4,30.27,WSW,245,5.8,6.3,57,0.00,,SCT,0.00,VWS V14.01,2013-02-28 05:41:00,
2013-02-27 21:45:00,39.2,25.7,30.24,West,270,5.4,10.1,58,0.00,,SCT,0.00,VWS V14.01,2013-02-28 05:45:00,
2013-02-27 21:46:00,39.4,25.4,30.27,SE,132,0.0,4.0,57,0.00,,SCT,0.00,VWS V14.01,2013-02-28 05:46:00,
2013-02-27 21:51:00,39.2,25.3,30.27,SW,231,4.9,6.3,57,0.00,,SCT,0.00,VWS V14.01,2013-02-28 05:51:00,
2013-02-27 21:56:00,39.2,25.3,30.27,South,177,2.7,6.3,57,0.00,,SCT,0.00,VWS V14.01,2013-02-28 05:56:00,
2013-02-27 22:00:00,39.0,26.7,30.24,SW,230,6.3,8.7,61,0.00,,SCT,0.00,VWS V14.01,2013-02-28 06:00:00,
2013-02-27 22:01:00,39.4,25.4,30.27,South,189,3.6,5.4,57,0.00,,SCT,0.00,VWS V14.01,2013-02-28 06:01:00,
2013-02-27 22:06:00,39.4,25.4,30.27,SW,223,4.0,8.1,57,0.00,,SCT,0.00,VWS V14.01,2013-02-28 06:06:00,
2013-02-27 22:11:00,39.2,25.3,30.24,South,181,4.0,8.1,57,0.00,,SCT,0.00,VWS V14.01,2013-02-28 06:11:00,
2013-02-27 22:15:00,39.0,27.5,30.24,West,270,2.7,8.7,63,0.00,,SCT,0.00,VWS V14.01,2013-02-28 06:15:00,
2013-02-27 22:16:00,39.2,25.3,30.24,West,280,5.8,10.1,57,0.00,,SCT,0.00,VWS V14.01,2013-02-28 06:16:00,
2013-02-27 22:21:00,39.2,25.3,30.24,South,173,5.4,10.1,57,0.00,,SCT,0.00,VWS V14.01,2013-02-28 06:21:00,
2013-02-27 22:26:00,39.4,25.4,30.24,WSW,239,3.6,10.1,57,0.00,,SCT,0.00,VWS V14.01,2013-02-28 06:26:00,
2013-02-27 22:30:00,39.0,28.6,30.24,SSW,192,3.6,8.3,66,0.00,,SCT,0.00,VWS V14.01,2013-02-28 06:30:00,
2013-02-27 22:31:00,39.4,25.4,30.24,SW,223,6.3,6.3,57,0.00,,SCT,0.00,VWS V14.01,2013-02-28 06:31:00,
2013-02-27 22:37:00,39.4,25.4,30.24,WSW,237,3.1,8.3,57,0.00,,SCT,0.00,VWS V14.01,2013-02-28 06:37:00,
2013-02-27 22:42:00,39.2,25.7,30.24,SW,217,5.8,10.1,58,0.00,,SCT,0.00,VWS V14.01,2013-02-28 06:42:00,
2013-02-27 22:45:00,38.8,28.8,30.24,SW,214,4.9,12.8,67,0.00,,SCT,0.00,VWS V14.01,2013-02-28 06:45:00,
2013-02-27 22:47:00,39.2,25.7,30.24,WSW,257,2.7,6.3,58,0.00,,SCT,0.00,VWS V14.01,2013-02-28 06:47:00,
2013-02-27 22:52:00,39.2,26.1,30.24,WSW,257,5.8,7.6,59,0.00,,SCT,0.00,VWS V14.01,2013-02-28 06:52:00,
2013-02-27 22:57:00,39.0,26.3,30.24,SW,236,3.1,8.3,60,0.00,,SCT,0.00,VWS V14.01,2013-02-28 06:57:00,
2013-02-27 23:00:00,38.8,29.9,30.24,SE,137,4.0,11.4,70,0.00,,SCT,0.00,VWS V14.01,2013-02-28 07:00:00,
2013-02-27 23:02:00,39.0,27.1,30.24,WSW,257,4.9,6.3,62,0.00,,SCT,0.00,VWS V14.01,2013-02-28 07:02:00,
2013-02-27 23:07:00,39.0,27.5,30.24,South,191,3.6,8.7,63,0.00,,SCT,0.00,VWS V14.01,2013-02-28 07:07:00,
2013-02-27 23:12:00,39.0,27.5,30.24,SSE,154,5.8,8.7,63,0.00,,SCT,0.00,VWS V14.01,2013-02-28 07:12:00,
2013-02-27 23:15:00,38.8,30.2,30.24,West,266,3.1,10.5,71,0.00,,SCT,0.00,VWS V14.01,2013-02-28 07:15:00,
2013-02-27 23:17:00,39.0,27.9,30.24,WSW,245,4.9,8.1,64,0.00,,SCT,0.00,VWS V14.01,2013-02-28 07:17:00,
2013-02-27 23:22:00,39.0,27.9,30.24,SW,236,5.4,8.3,64,0.00,,SCT,0.00,VWS V14.01,2013-02-28 07:22:00,
2013-02-27 23:27:00,38.8,28.1,30.24,SSW,202,3.1,8.3,65,0.00,,SCT,0.00,VWS V14.01,2013-02-28 07:27:00,
2013-02-27 23:30:00,39.0,30.1,30.24,South,189,3.6,11.4,70,0.00,,SCT,0.00,VWS V14.01,2013-02-28 07:30:00,
2013-02-27 23:32:00,39.0,28.6,30.24,WNW,288,3.6,7.6,66,0.00,,SCT,0.00,VWS V14.01,2013-02-28 07:32:00,
2013-02-27 23:37:00,39.0,29.0,30.24,SSE,160,11.4,12.8,67,0.00,,SCT,0.00,VWS V14.01,2013-02-28 07:37:00,
2013-02-27 23:42:00,38.8,28.8,30.24,SW,220,4.0,12.8,67,0.00,,SCT,0.00,VWS V14.01,2013-02-28 07:42:00,
2013-02-27 23:45:00,38.8,30.2,30.24,South,184,6.3,9.6,71,0.00,,SCT,0.00,VWS V14.01,2013-02-28 07:45:00,
2013-02-27 23:47:00,38.8,28.8,30.24,South,182,8.3,8.3,67,0.00,,SCT,0.00,VWS V14.01,2013-02-28 07:47:00,
2013-02-27 23:52:00,38.7,29.4,30.24,WSW,254,5.4,11.4,69,0.00,,SCT,0.00,VWS V14.01,2013-02-28 07:52:00,
2013-02-27 23:57:00,38.7,29.7,30.24,West,266,2.7,11.4,70,0.00,,SCT,0.00,VWS V14.01,2013-02-28 07:57:00,